User: anonymous
Location: NC_16_and_73
(35.4490°N, 81.0150°W)
Time: 21:46:05
(UTC-04:00)
Language:

Iridium 63 - Orbit

View from above orbital plane
View from above orbital plane
View from above satellite
View from above satellite

Ground track
Ground track

The orbit data is extracted from the following two-line orbital elements,

1 25286U 98021B   14261.45935539  .00000315  00000-0  10526-3 0  9693
2 25286 086.3947 283.3209 0002443 109.0786 006.4727 14.34232249861299
Epoch (UTC): 18 September 2014 11:01:28
Eccentricity: 0.0002443
inclination: 86.3947°
perigee height: 776 km
apogee height: 779 km
right ascension of ascending node: 283.3209°
argument of perigee: 109.0786°
revolutions per day: 14.34232249
mean anomaly at epoch: 6.4727°
orbit number at epoch: 86129

The dashed part of the orbit path shows where the satellite is in the earth's shadow,  

DLR